Location: Babice
(50.3480°N, 22.9363°E)
Time: 12:51:29
(UTC+00:00)

Cosmos 407 Rocket - Pass Details

Date: 14 July 2020
Orbit: 744 x 786 km, 74.0° (Epoch: 07 August)

Event Time Altitude Azimuth Distance (km) Brightness Sun altitude
Exits shadow 00:55:14 15° 223° (SW) 1,992 5.0 -11.6°
Maximum altitude 00:59:32 57° 299° (WNW) 928 3.9 -11.2°
Drops below altitude 10° 01:04:49 10° 18° (NNE) 2,357 7.4 -10.7°
Sets 01:07:16 0° 23° (NNE) 3,287 8.6 -10.5°
